MST,Max TemperatureF,Mean TemperatureF,Min TemperatureF,Max Dew PointF,MeanDew PointF,Min DewpointF,Max Humidity, Mean Humidity, Min Humidity, Max Sea Level PressureIn, Mean Sea Level PressureIn, Min Sea Level PressureIn, Max VisibilityMiles, Mean VisibilityMiles, Min VisibilityMiles, Max Wind SpeedMPH, Mean Wind SpeedMPH, Max Gust SpeedMPH,PrecipitationIn, CloudCover, Events, WindDirDegrees
2012-12-1,41,39,36,38,35,33,92,89,85,29.84,29.77,29.64,10,9,5,22,10,28,0.49,8,Rain,148
2012-12-2,43,35,27,39,34,20,93,75,56,29.98,29.53,29.34,10,8,4,15,10,22,1.29,7,Rain,182
2012-12-3,36,32,27,28,25,24,92,81,69,30.22,30.14,30.01,10,10,10,14,5,18,0.00,6,,154
2012-12-4,40,35,30,37,31,25,100,85,69,30.16,30.07,29.99,10,3,1,24,5,30,0.91,8,Rain-Snow,148
2012-12-5,45,37,28,38,34,26,100,88,76,30.11,30.02,29.94,10,9,0,18,6,25,0.18,7,Fog-Rain,176
2012-12-6,31,28,25,29,26,23,100,89,78,30.11,30.05,29.95,10,8,0,9,2,14,T,8,Fog-Snow,289
2012-12-7,30,28,26,25,23,21,92,81,69,30.10,29.97,29.81,10,6,1,20,8,26,0.02,8,Snow,188
2012-12-8,27,21,15,23,17,11,91,83,74,30.25,30.02,29.86,10,5,0,17,4,24,0.08,8,Fog-Snow,301
2012-12-9,21,11,1,18,11,-2,96,79,62,30.50,30.36,30.18,10,7,2,12,2,14,0.05,5,Snow,63
2012-12-10,34,25,15,27,20,13,96,84,72,30.34,30.21,30.11,10,8,2,6,1,7,0.03,7,Snow,31
2012-12-11,35,31,26,30,28,25,100,85,70,30.15,29.77,29.53,10,7,2,14,3,18,0.03,8,Snow,147
2012-12-12,32,22,11,30,26,10,100,92,84,29.94,29.66,29.51,10,4,0,9,2,13,0.46,7,Fog-Snow,172
2012-12-13,28,19,9,22,11,3,92,81,70,30.06,29.92,29.82,10,6,0,10,1,14,0.00,3,Fog,36
2012-12-14,30,25,20,27,23,19,96,89,81,29.85,29.74,29.63,10,9,4,7,1,9,0.01,8,Snow,275
2012-12-15,26,24,22,23,20,16,96,82,68,29.88,29.80,29.66,10,8,1,14,5,18,0.02,8,Snow,168
2012-12-16,29,21,13,27,21,11,96,82,68,29.91,29.67,29.47,10,4,0,15,6,20,0.34,7,Fog-Snow,156
2012-12-17,35,26,17,31,25,11,92,71,50,29.87,29.51,29.37,10,6,1,30,12,36,0.19,7,Snow,201
2012-12-18,21,10,-1,12,6,-4,100,84,67,30.13,29.94,29.78,10,9,2,6,1,8,0.00,3,,141
2012-12-19,20,11,1,12,4,-4,88,75,62,30.33,30.17,29.90,10,8,0,15,3,17,T,6,Fog-Snow,149
2012-12-20,35,27,18,17,11,8,80,60,39,30.25,30.09,29.96,10,10,10,20,8,26,0.00,7,,144
2012-12-21,36,31,26,28,25,12,92,67,41,29.98,29.90,29.86,10,5,0,23,7,30,0.09,8,Fog-Snow,146
2012-12-22,36,29,22,29,26,17,92,74,56,29.92,29.76,29.66,10,4,0,24,9,31,0.33,8,Fog-Snow,153
2012-12-23,31,26,21,29,24,20,92,81,69,30.00,29.77,29.58,10,4,0,17,7,23,0.34,8,Fog-Snow,157
2012-12-24,31,23,14,28,20,14,96,85,74,30.20,29.90,29.63,10,6,0,17,1,23,0.04,8,Fog-Snow,196
2012-12-25,23,16,9,19,12,3,92,79,65,30.23,30.02,29.77,10,4,0,10,2,15,0.05,7,Fog-Snow,148
2012-12-26,29,23,16,22,19,14,92,81,69,29.89,29.75,29.64,10,10,7,7,1,8,T,8,,259
2012-12-27,28,22,15,21,18,12,92,84,75,30.17,29.99,29.81,10,8,1,7,1,9,T,7,Snow,238
2012-12-28,24,16,8,19,16,5,92,77,62,30.28,30.18,30.06,10,10,8,7,1,9,T,7,Snow,117
2012-12-29,23,12,1,16,8,-4,91,78,65,30.27,30.10,29.92,10,6,0,8,0,10,0.02,6,Fog-Snow,85
2012-12-30,22,12,1,13,5,-1,91,80,68,30.34,30.13,29.98,10,6,0,8,1,10,T,4,Fog-Snow,54
2012-12-31,16,10,3,10,4,-1,92,84,76,30.45,30.28,30.09,10,9,1,7,1,8,0.00,6,,135